Location: Hysolar-Haus
(48.7436°N, 9.0965°E)
Time: 07:38:42
(UTC+00:00)

Vanguard 3 - All Passes

Search period start: 13 November 2019 00:00
Search period end: 23 November 2019 00:00
Orbit: 508 x 3263 km, 33.3° (Epoch: 12 November)

Date Brightness Start Highest point End Pass type
(mag) Time Alt. Az. Time Alt. Az. Time Alt. Az.
13 Nov - 13:19:44 10° SSW 13:33:46 26° SSE 13:45:10 10° ESE daylight
13 Nov - 15:31:33 10° SW 15:47:26 38° S 15:58:13 10° ESE daylight
13 Nov - 17:46:57 10° WSW 18:00:24 37° SSW 18:08:49 10° SE visible
13 Nov - 20:04:06 10° WSW 20:11:31 19° SW 20:16:50 10° S visible
14 Nov - 12:07:03 10° S 12:18:28 19° SE 12:28:42 10° ESE daylight
14 Nov - 14:15:50 10° SW 14:31:59 35° SSE 14:44:05 10° ESE daylight
14 Nov - 16:29:59 10° WSW 16:45:37 41° S 16:55:45 10° ESE visible
14 Nov - 18:46:26 10° WSW 18:57:52 30° SSW 19:05:16 10° SSE visible
15 Nov - 10:58:52 10° SSE 11:03:26 11° SE 11:07:55 10° ESE daylight
15 Nov - 13:01:12 10° SSW 13:16:24 29° SSE 13:29:06 10° E daylight
15 Nov - 15:13:27 10° SW 15:30:19 41° S 15:42:07 10° ESE daylight
15 Nov - 17:29:05 10° WSW 17:43:34 38° SSW 17:52:47 10° SE visible
15 Nov - 19:46:42 10° WSW 19:54:47 20° SW 20:00:39 10° S visible
16 Nov - 11:48:07 10° S 12:00:59 22° SE 12:12:49 10° ESE daylight
16 Nov - 13:57:41 10° SW 14:14:41 38° SSE 14:27:51 10° ESE daylight
16 Nov - 16:12:02 10° WSW 16:28:36 43° S 16:39:38 10° ESE visible
16 Nov - 18:28:43 10° W 18:41:03 30° SSW 18:49:10 10° SSE visible
17 Nov - 10:37:58 10° SSE 10:45:54 14° SE 10:53:47 10° ESE daylight
17 Nov - 12:42:58 10° SSW 12:58:56 32° SSE 13:12:48 10° E daylight
17 Nov - 14:55:29 10° WSW 15:13:06 44° S 15:25:53 10° ESE daylight
17 Nov - 17:11:14 10° WSW 17:26:36 39° SSW 17:36:39 10° SE visible
17 Nov - 19:29:15 10° W 19:37:57 20° SW 19:44:19 10° S visible
18 Nov - 11:29:39 10° S 11:43:25 25° SE 11:56:34 10° E daylight
18 Nov - 13:39:43 10° SW 13:57:15 41° SSE 14:11:29 10° ESE daylight
18 Nov - 15:54:10 10° WSW 16:11:27 45° S 16:23:24 10° ESE visible
18 Nov - 18:11:00 10° W 18:24:05 30° SSW 18:32:55 10° SSE visible
19 Nov - 10:18:37 10° SSE 10:28:19 16° SE 10:38:11 10° ESE daylight
19 Nov - 12:24:59 10° SSW 12:41:23 35° SSE 12:56:17 10° E daylight
19 Nov - 14:37:40 10° WSW 14:55:45 46° S 15:09:31 10° ESE daylight
19 Nov - 16:53:26 10° W 17:09:30 39° SSW 17:20:22 10° SE visible
19 Nov - 19:11:48 10° W 19:20:58 19° SW 19:27:49 10° S visible
20 Nov - 11:11:33 10° SSW 11:25:46 27° SE 11:40:01 10° E daylight
20 Nov - 13:21:58 10° SW 13:39:44 43° SSE 13:54:57 10° ESE daylight
20 Nov - 15:36:23 10° WSW 15:54:11 45° S 16:07:03 10° ESE daylight
20 Nov - 17:53:17 10° W 18:07:00 30° SSW 18:16:32 10° SSE visible
21 Nov - 10:00:02 10° S 10:10:40 19° SE 10:21:58 10° E daylight
21 Nov - 12:07:17 10° SW 12:23:45 38° SSE 12:39:36 10° E daylight
21 Nov - 14:20:00 10° WSW 14:38:18 47° S 14:53:00 10° ESE daylight
21 Nov - 16:35:41 10° W 16:52:16 39° SSW 17:03:58 10° SE visible
21 Nov - 18:54:23 10° W 19:03:51 19° SW 19:11:08 10° S visible
22 Nov - 10:53:47 10° SSW 11:08:05 30° SE 11:23:14 10° E daylight
22 Nov - 13:04:24 10° SW 13:22:10 45° SSE 13:38:15 10° ESE daylight
22 Nov - 15:18:44 10° WSW 15:36:48 46° SSW 15:50:33 10° SE daylight
22 Nov - 17:35:39 10° W 17:49:47 29° SW 17:59:59 10° SSE visible
